Date,TemperatureHighF,TemperatureAvgF,TemperatureLowF,DewpointHighF,DewpointAvgF,DewpointLowF,HumidityHigh,HumidityAvg,HumidityLow,PressureMaxIn,PressureMinIn,WindSpeedMaxMPH,WindSpeedAvgMPH,GustSpeedMaxMPH,PrecipitationSumIn
2013-1-27,38,38,38,36,36,36,94,93,93,29.70,29.69,4,2,4,0.46
2013-1-28,38,36,34,37,34,32,95,94,92,29.79,29.69,7,2,7,1.46
2013-1-29,44,40,36,43,38,35,99,95,94,30.03,29.78,7,2,7,0.96
2013-1-30,50,44,41,48,44,40,99,96,93,30.08,30.03,4,2,7,0.56
2013-1-31,48,45,43,45,43,42,96,93,85,30.09,30.00,11,3,11,0.41
2013-2-1,57,45,34,47,41,32,96,88,63,30.11,30.03,8,2,8,0.05
2013-2-2,41,35,29,40,33,28,99,95,92,30.09,29.96,8,2,8,0.00
2013-2-3,48,42,35,44,40,35,99,95,81,30.01,29.90,13,2,13,0.08
2013-2-4,54,45,42,45,42,40,95,89,70,29.91,29.58,8,2,8,0.00
2013-2-5,50,46,42,44,42,40,96,87,71,29.64,29.54,25,9,25,0.04
2013-2-6,48,45,42,40,39,35,88,80,63,29.75,29.50,22,6,22,0.02
2013-2-7,54,41,29,39,35,28,94,79,47,29.90,29.51,22,5,22,0.14
2013-2-8,45,35,26,38,32,24,94,88,73,30.01,29.90,5,1,5,0.00
2013-2-9,44,39,37,41,38,35,99,96,90,30.04,29.96,4,1,4,0.05
2013-2-10,52,39,30,40,35,29,99,88,59,30.08,30.02,9,2,9,0.00
2013-2-11,44,40,37,41,38,36,97,94,89,30.06,30.03,6,2,6,0.04
2013-2-12,49,45,40,47,43,39,99,93,83,30.11,29.98,16,4,16,0.00
2013-2-13,49,44,41,44,42,40,97,91,79,30.20,30.00,14,2,14,0.04
2013-2-14,49,44,41,44,42,39,97,90,78,30.26,30.19,11,2,11,0.05
2013-2-15,61,44,32,45,38,31,97,83,51,30.25,29.88,8,2,8,0.00
2013-2-16,47,41,32,43,38,31,95,90,78,29.90,29.83,15,2,15,0.30
2013-2-17,46,40,33,38,36,32,95,88,75,29.95,29.82,14,3,14,0.05
2013-2-18,46,38,31,38,34,30,98,86,68,29.83,29.47,13,3,13,0.00
2013-2-19,54,40,30,39,33,28,95,76,44,29.72,29.45,15,3,15,0.00
2013-2-20,46,36,29,38,33,27,94,88,69,29.75,29.70,14,2,14,0.00
2013-2-21,42,39,36,39,37,34,93,91,86,29.77,29.70,15,4,15,0.04
2013-2-22,45,40,33,40,37,31,95,89,80,29.74,29.37,25,8,25,0.30
2013-2-23,49,39,33,41,35,32,96,86,58,30.07,29.60,18,3,18,0.26
2013-2-24,46,42,35,37,35,33,93,78,67,30.08,29.66,25,6,25,0.01
2013-2-25,54,44,38,40,35,26,91,73,37,30.00,29.59,23,6,23,0.05
2013-2-26,47,41,30,36,32,28,94,72,52,30.06,29.90,19,5,19,0.02
2013-2-27,52,44,39,42,38,32,94,80,48,30.00,29.91,15,3,15,0.15
2013-2-28,52,44,39,48,42,38,94,92,86,30.01,29.89,22,4,22,0.22
2013-3-1,57,54,51,49,48,46,89,79,71,30.04,29.96,34,12,34,0.00
2013-3-2,57,49,35,46,42,34,93,78,65,29.98,29.76,28,7,28,0.12
2013-3-3,52,38,29,39,34,27,95,84,47,30.02,29.89,16,3,16,0.06
2013-3-4,59,40,25,37,28,23,95,70,26,30.02,29.65,11,2,11,0.00
2013-3-5,57,42,32,37,32,27,86,70,33,29.65,29.43,11,3,11,0.00
2013-3-6,44,39,34,41,37,32,93,91,86,29.60,29.29,11,3,11,0.22
2013-3-7,52,41,32,44,38,30,95,90,70,29.81,29.61,10,2,10,0.14
2013-3-8,57,39,28,42,34,27,96,83,51,29.95,29.78,12,2,12,0.00
2013-3-9,61,40,26,41,33,25,95,78,45,30.20,29.95,11,2,11,0.00
2013-3-10,49,41,31,40,36,29,94,83,61,30.20,30.13,10,2,10,0.00
2013-3-11,56,45,33,43,38,32,95,78,46,30.15,29.86,12,3,12,0.00
2013-3-12,54,51,48,49,46,41,95,85,72,29.86,29.75,23,6,23,0.31
2013-3-13,53,51,50,50,48,47,95,90,82,29.91,29.80,20,5,20,0.25
2013-3-14,54,51,48,50,47,42,93,86,75,29.86,29.73,18,5,18,0.01
2013-3-15,61,53,48,48,46,44,92,80,59,29.91,29.83,17,5,17,0.00
2013-3-16,51,44,34,46,40,33,94,87,68,29.84,29.59,30,6,30,0.26
2013-3-17,49,41,36,38,35,31,94,81,53,29.90,29.67,14,4,14,0.05
2013-3-18,55,45,34,40,32,24,93,65,33,29.95,29.82,22,5,22,0.11
2013-3-19,57,42,30,40,32,22,94,73,27,29.95,29.31,22,5,22,0.12
2013-3-20,53,44,34,46,40,32,93,84,62,29.72,29.09,36,8,36,0.93
2013-3-21,49,39,34,39,34,30,95,82,60,29.91,29.72,17,3,17,0.12
2013-3-22,53,38,29,36,31,25,94,79,38,30.08,29.91,14,3,14,0.24
2013-3-23,56,39,28,34,28,22,94,69,29,30.11,30.00,12,3,12,0.00
2013-3-24,63,41,27,33,29,19,94,67,20,30.02,29.83,15,3,15,0.00
2013-3-25,66,46,28,35,29,22,94,61,22,29.85,29.63,15,4,15,0.00
2013-3-26,64,48,35,39,35,32,89,66,37,29.72,29.66,11,3,11,0.00
2013-3-27,59,48,39,44,40,37,92,75,51,29.70,29.64,8,2,8,0.00
2013-3-28,67,51,37,47,42,35,94,74,44,29.85,29.69,12,3,12,0.01
2013-3-29,67,46,36,49,41,35,95,84,40,29.96,29.85,13,2,13,0.00
2013-3-30,72,51,32,46,40,31,95,70,30,29.97,29.78,11,3,11,0.00
2013-3-31,76,53,34,46,41,32,94,70,28,29.79,29.60,10,3,10,0.00
2013-4-1,50,41,36,47,39,34,94,93,87,29.79,29.67,4,2,4,0.00
2013-4-2,55,53,48,47,46,44,90,78,69,29.91,29.85,10,3,10,0.00
2013-4-3,68,53,44,48,44,42,93,74,43,29.89,29.65,10,2,10,0.00
2013-4-4,57,52,46,53,48,44,91,86,74,29.66,29.34,18,4,18,0.25
2013-4-5,58,52,48,49,47,44,92,82,64,29.57,29.43,27,9,27,0.46
2013-4-6,53,48,44,45,42,38,89,79,65,29.62,29.41,24,8,24,0.17
2013-4-7,48,43,40,42,40,38,94,89,79,29.60,29.21,15,2,15,0.86
2013-4-8,58,46,42,46,42,40,95,87,59,29.97,29.60,7,2,7,0.13
2013-4-9,55,49,41,45,42,40,95,77,60,30.05,29.88,11,3,11,0.00
2013-4-10,57,51,47,49,43,39,90,72,56,29.96,29.61,27,8,27,0.13
2013-4-11,57,46,36,43,39,34,93,76,47,30.00,29.89,14,3,14,0.12
2013-4-12,48,40,34,40,37,32,94,87,66,29.90,29.39,21,5,21,0.30
2013-4-13,50,41,37,44,37,30,93,85,68,29.70,29.44,18,4,18,0.31
2013-4-14,57,44,36,43,37,31,95,79,43,29.72,29.62,13,2,13,0.11
2013-4-15,56,44,35,42,38,33,95,82,51,29.89,29.65,16,3,16,0.12
2013-4-16,61,44,30,49,35,28,96,74,31,30.10,29.89,12,3,12,0.04
2013-4-17,62,47,32,44,36,31,95,69,34,30.17,30.09,14,4,14,0.00
2013-4-18,50,46,43,45,41,37,92,83,69,30.16,29.92,14,3,14,0.22
2013-4-19,55,50,47,50,47,45,94,92,84,29.92,29.77,14,4,14,0.51
2013-4-20,59,49,46,48,45,43,95,87,64,29.99,29.90,12,2,12,0.31
2013-4-21,58,46,37,45,41,35,94,84,56,30.08,29.94,16,3,16,0.30
2013-4-22,63,46,30,45,32,24,96,65,23,30.23,30.08,15,4,15,0.01
2013-4-23,68,48,31,41,34,23,94,64,21,30.14,29.94,14,3,14,0.00
2013-4-24,72,52,32,43,35,20,94,60,15,30.04,29.77,18,3,18,0.00
2013-4-25,75,56,36,44,38,30,93,59,25,29.85,29.76,13,3,13,0.00
2013-4-26,70,55,39,49,45,37,93,70,46,29.95,29.84,11,3,11,0.00
2013-4-27,55,50,48,48,44,37,93,81,51,29.93,29.85,14,2,14,0.19
2013-4-28,59,51,46,47,44,40,93,79,60,29.93,29.64,17,4,17,0.08
2013-4-29,58,49,42,44,34,24,91,59,29,29.87,29.62,28,9,28,0.11
2013-4-30,59,45,33,40,32,17,90,64,23,30.16,29.86,14,4,14,0.11
2013-5-1,69,48,29,38,33,27,94,61,26,30.29,30.16,12,4,12,0.00
2013-5-2,69,52,36,44,38,34,93,65,36,30.26,30.07,21,4,21,0.00
2013-5-3,73,55,36,48,42,34,94,66,36,30.11,29.92,16,4,16,0.00
2013-5-4,81,60,38,50,43,36,95,60,23,29.96,29.71,18,4,18,0.00
2013-5-5,86,64,42,53,46,40,93,58,25,29.71,29.46,14,4,14,0.00
2013-5-6,88,66,44,52,47,32,93,57,16,29.57,29.44,13,4,13,0.00
2013-5-7,77,59,46,54,49,43,92,73,42,29.70,29.52,11,3,11,0.00
2013-5-8,73,55,45,54,49,43,94,81,51,29.86,29.71,8,2,8,0.00
2013-5-9,73,56,44,55,48,42,96,79,41,29.94,29.82,13,3,13,0.00
2013-5-10,49,45,43,46,43,41,95,93,91,29.91,29.87,4,1,4,0.00
2013-5-11,57,57,57,51,51,51,80,80,80,29.72,29.72,0,0,0,0.00
2013-5-12,71,63,57,58,55,51,92,77,54,29.80,29.70,15,4,15,0.13
2013-5-13,63,56,46,57,51,43,90,81,56,29.90,29.63,33,6,33,0.27
2013-5-14,70,55,45,44,42,37,91,65,32,29.94,29.83,10,3,13,0.00
2013-5-15,68,50,41,49,44,39,94,85,39,29.84,29.71,11,2,11,0.06
2013-5-16,73,60,51,56,50,49,94,74,46,29.73,29.56,16,3,16,0.01
2013-5-17,54,54,53,49,49,48,86,84,80,29.76,29.75,11,3,11,0.06
2013-5-18,64,56,51,50,47,43,84,72,48,29.99,29.75,12,4,12,0.00
2013-5-19,69,56,47,52,48,44,93,78,48,30.11,29.98,14,2,14,0.02
2013-5-20,72,55,41,51,46,39,96,75,42,30.06,29.61,14,4,14,0.00
2013-5-21,58,50,46,50,46,44,93,86,70,29.62,29.49,12,2,12,0.45
2013-5-22,53,47,44,47,44,41,94,87,78,29.65,29.56,12,3,12,0.06
2013-5-23,62,50,42,48,44,40,96,81,51,29.73,29.63,23,3,23,0.04
2013-5-24,68,53,40,48,44,39,96,75,43,29.75,29.68,8,2,8,0.00
2013-5-25,70,56,49,48,46,42,92,71,39,29.75,29.68,11,3,11,0.02
2013-5-26,69,56,48,55,50,46,92,81,57,29.70,29.65,10,2,10,0.12
2013-5-27,64,56,50,55,52,48,93,85,65,29.67,29.43,11,2,11,0.09
2013-5-28,66,56,51,52,49,47,91,77,55,29.59,29.48,15,6,15,0.01
2013-5-29,57,52,50,51,48,47,94,87,77,29.68,29.38,7,2,7,0.37
2013-5-30,62,52,48,49,47,45,94,84,57,29.95,29.67,13,4,13,0.06
2013-5-31,57,52,50,50,47,46,90,84,75,30.03,29.95,11,2,11,0.00
2013-6-1,74,60,46,50,47,42,93,67,39,29.96,29.75,9,3,9,0.00
2013-6-2,73,58,50,51,49,46,91,75,39,29.81,29.74,9,3,9,0.04
2013-6-3,77,59,44,54,49,42,95,73,42,29.83,29.76,12,3,12,0.00
2013-6-4,83,71,46,56,53,44,93,56,34,29.84,29.72,11,4,11,0.00
2013-6-5,78,69,48,58,55,46,93,63,46,29.81,29.74,13,3,13,0.00
2013-6-6,80,74,54,58,56,41,68,53,29,29.76,29.71,11,3,11,0.00
2013-6-7,68,58,51,51,47,44,81,69,48,29.88,29.73,11,4,11,0.00
2013-6-8,70,59,50,50,47,45,85,66,48,29.90,29.81,12,4,12,0.00
2013-6-9,69,57,49,48,46,41,90,68,40,29.83,29.75,13,4,13,0.00
2013-6-10,70,54,43,49,45,40,93,74,41,29.76,29.62,17,3,17,0.00
2013-6-11,64,57,48,53,48,44,93,74,51,29.81,29.65,17,3,17,0.07
2013-6-12,70,57,48,50,47,43,94,70,41,29.85,29.80,14,3,14,0.02
2013-6-13,69,58,52,52,49,45,93,74,45,29.93,29.85,11,2,11,0.04
2013-6-14,73,59,50,50,48,46,91,70,44,29.95,29.77,13,3,13,0.00
2013-6-15,79,61,42,56,50,41,95,71,39,29.77,29.61,11,3,11,0.00
2013-6-16,77,62,49,61,54,48,95,76,45,29.80,29.69,14,2,14,0.06
2013-6-17,82,64,49,58,52,47,95,70,31,29.80,29.58,14,3,14,0.09
2013-6-18,78,63,52,56,50,39,94,68,26,29.69,29.57,11,3,11,0.01
2013-6-19,73,60,54,54,51,47,90,75,42,29.71,29.62,11,2,11,0.17
2013-6-20,57,54,52,54,51,49,94,90,75,29.82,29.67,10,2,10,0.93
2013-6-21,75,60,52,54,52,48,95,77,39,29.87,29.81,9,2,9,0.04
2013-6-22,82,65,48,57,51,46,95,66,32,29.84,29.56,11,2,11,0.00
2013-6-23,74,64,54,61,58,52,93,79,59,29.56,29.29,6,2,6,0.01
2013-6-24,70,62,58,60,56,53,94,82,58,29.41,29.28,19,3,19,0.25
2013-6-25,76,61,54,63,56,52,94,82,53,29.57,29.39,20,2,20,0.50
2013-6-26,76,63,54,62,56,52,95,80,51,29.80,29.56,14,2,14,0.04
2013-6-27,74,66,58,64,60,56,95,81,62,29.91,29.76,11,2,11,0.05
2013-6-28,95,74,58,66,62,57,94,68,32,29.90,29.73,8,2,8,0.00
2013-6-29,88,73,61,64,61,58,91,69,41,29.82,29.68,10,2,10,0.00
2013-6-30,94,77,57,69,63,55,95,66,40,29.73,29.54,11,3,11,0.00
2013-7-1,86,72,60,64,59,55,91,67,45,29.73,29.61,11,3,11,0.00
2013-7-2,82,62,56,60,55,51,88,78,36,29.83,29.74,11,3,14,0.00
2013-7-3,78,70,57,56,51,40,72,51,32,29.85,29.74,15,5,15,0.00
2013-7-4,65,58,54,52,50,48,85,76,63,29.84,29.78,11,4,11,0.00
2013-7-5,79,68,56,56,54,52,90,65,41,29.67,29.64,8,2,8,0.00
2013-7-6,56,56,56,53,53,53,91,91,91,29.67,29.67,0,0,0,0.00
2013-7-8,83,71,59,60,58,56,91,65,40,29.80,29.74,10,2,10,0.00
2013-7-9,83,68,52,61,56,50,95,69,43,29.83,29.70,11,4,11,0.00
2013-7-10,77,65,54,57,52,47,85,66,46,29.77,29.66,14,5,14,0.00
2013-7-11,74,60,50,51,48,44,85,65,36,29.79,29.71,13,5,13,0.00
2013-7-12,73,58,46,52,48,43,93,73,43,29.82,29.73,14,2,14,0.00
2013-7-13,79,62,43,53,48,42,95,65,34,29.92,29.80,14,3,14,0.00
2013-7-14,83,64,45,56,49,43,95,63,29,29.85,29.69,14,3,14,0.00
2013-7-15,84,65,45,55,49,43,94,62,28,29.78,29.59,19,4,19,0.00
2013-7-16,90,70,50,61,53,46,94,61,25,29.62,29.50,14,3,14,0.00
2013-7-17,72,66,62,60,57,55,92,74,58,29.89,29.58,19,4,19,0.01
2013-7-18,80,66,56,59,55,52,87,69,47,29.94,29.81,11,3,11,0.00
2013-7-19,81,64,50,61,55,48,95,76,49,29.89,29.73,11,3,11,0.00
2013-7-20,81,62,52,60,55,50,95,80,49,29.81,29.66,9,2,9,0.00
2013-7-21,83,63,50,61,56,48,95,79,47,29.70,29.59,10,2,10,0.00
2013-7-22,82,65,54,60,56,52,95,77,46,29.78,29.64,10,2,10,0.00
2013-7-23,88,67,50,61,55,49,95,70,35,29.78,29.65,11,3,11,0.00
2013-7-24,84,66,50,59,54,48,95,67,39,29.77,29.69,13,3,13,0.00
2013-7-25,85,66,48,58,53,46,95,67,32,29.82,29.75,12,4,12,0.00
2013-7-26,86,65,47,58,50,43,94,63,26,29.87,29.78,17,4,17,0.00
2013-7-27,82,63,46,56,51,44,94,67,34,29.87,29.68,12,3,12,0.00
2013-7-28,76,61,47,56,52,45,95,75,48,29.73,29.64,11,3,11,0.00
2013-7-29,81,65,56,56,54,52,91,69,41,29.72,29.64,11,3,11,0.00
2013-7-30,81,65,50,59,55,49,95,72,43,29.84,29.71,11,2,11,0.00
2013-7-31,73,61,52,62,56,50,94,85,60,29.84,29.69,11,2,11,0.04
2013-8-1,66,61,57,58,56,54,93,84,72,29.78,29.74,11,3,11,0.01
2013-8-2,62,59,57,58,56,53,94,89,78,29.85,29.77,13,2,13,0.44
2013-8-3,79,65,58,61,58,56,96,79,51,29.85,29.75,11,2,11,0.01
2013-8-4,85,67,55,64,58,53,94,74,46,29.78,29.63,11,2,11,0.00
2013-8-5,86,68,52,64,56,51,96,71,41,29.73,29.62,12,3,12,0.00
2013-8-6,87,67,49,59,53,48,95,67,29,29.72,29.60,11,3,11,0.00
2013-8-7,88,68,51,61,54,49,95,67,34,29.72,29.62,12,3,12,0.00
2013-8-8,81,66,54,61,56,52,94,71,44,29.75,29.64,14,4,14,0.00
2013-8-9,87,67,51,60,56,49,93,69,38,29.67,29.52,11,3,11,0.00
2013-8-10,84,69,61,63,60,57,93,76,48,29.71,29.55,14,4,14,0.05
2013-8-11,80,65,57,60,57,53,93,76,45,29.77,29.69,9,2,9,0.04
2013-8-12,81,66,57,58,55,53,87,70,42,29.78,29.69,11,3,11,0.00
2013-8-13,86,68,55,58,55,53,93,67,37,29.81,29.62,12,3,12,0.00
2013-8-14,85,67,52,63,57,50,95,73,39,29.66,29.60,10,2,10,0.00
2013-8-15,71,66,63,66,63,61,95,91,74,29.69,29.63,5,1,5,0.09
2013-8-18,78,69,59,60,56,53,89,65,49,29.83,29.77,14,4,14,0.00
2013-8-19,84,66,58,59,55,49,88,67,41,29.83,29.75,17,4,17,0.00
2013-8-20,80,63,52,56,51,49,93,69,37,29.88,29.76,14,4,14,0.00
2013-8-21,85,65,46,58,52,45,96,67,36,29.81,29.62,14,3,14,0.00
2013-8-22,88,68,50,60,55,48,94,68,35,29.66,29.49,9,2,9,0.00
2013-8-23,78,65,58,58,57,55,92,75,51,29.61,29.52,17,3,17,0.00
2013-8-24,57,56,54,53,52,52,90,88,86,29.63,29.61,2,1,2,0.08
2013-8-25,61,53,48,59,51,47,96,94,89,29.67,29.59,3,1,3,0.00
2013-8-26,79,66,56,60,56,50,95,75,44,29.67,29.55,22,3,22,0.00
2013-8-27,84,68,59,62,58,56,91,72,42,29.67,29.49,11,2,11,0.00
2013-8-28,85,69,60,66,60,56,95,76,43,29.60,29.53,10,2,10,0.09
2013-8-29,65,63,62,63,61,59,95,92,86,29.72,29.57,8,1,8,0.70
2013-8-30,72,63,57,62,59,56,95,87,58,29.86,29.72,14,3,14,0.00
2013-8-31,61,60,59,57,57,57,92,91,89,29.55,29.55,2,1,2,0.00
2013-9-1,86,67,52,63,58,51,96,74,42,29.61,29.49,11,2,11,0.00
2013-9-2,84,68,54,64,57,53,95,71,40,29.65,29.55,11,2,11,0.00
2013-9-3,79,64,57,65,60,56,95,86,54,29.73,29.64,10,2,10,0.13
2013-9-4,73,62,56,62,59,54,97,89,70,29.76,29.71,9,2,9,0.00
2013-9-5,70,62,56,62,58,55,97,89,73,29.76,29.63,10,2,10,0.07
2013-9-6,61,61,61,59,59,59,93,93,93,29.65,29.65,2,2,2,0.07
2013-9-7,78,64,57,63,59,56,96,85,54,29.82,29.72,9,2,9,0.04
2013-9-8,81,65,55,63,58,54,97,81,50,29.83,29.72,11,2,11,0.00
2013-9-9,81,65,55,63,58,54,97,82,51,29.78,29.67,9,2,9,0.00
2013-9-10,63,60,54,59,57,53,97,89,84,29.72,29.69,4,2,4,0.00
2013-9-11,99,79,62,68,63,53,94,62,26,30.09,29.88,8,2,8,18.71
2013-9-12,82,68,55,63,59,54,96,75,48,30.04,29.92,11,3,11,0.00
2013-9-13,66,61,54,62,58,53,96,91,83,30.01,29.91,6,1,6,0.00
2013-9-14,69,64,61,61,60,59,96,89,75,29.92,29.77,8,2,8,0.00
2013-9-15,66,62,58,62,59,56,96,93,85,29.85,29.75,10,2,10,0.17
2013-9-16,65,60,55,60,57,53,96,91,83,29.98,29.84,10,2,10,0.20
2013-9-17,61,57,54,57,54,53,97,89,76,29.98,29.90,8,1,8,0.01
2013-9-18,76,56,49,60,52,48,97,88,40,30.11,29.98,7,1,7,0.06
2013-9-19,88,61,42,55,48,41,98,70,24,30.09,29.79,7,2,8,0.00
2013-9-20,80,62,45,56,50,44,96,72,34,29.80,29.61,16,3,16,0.02
2013-9-21,74,62,56,56,54,50,93,77,46,29.75,29.67,10,2,10,0.00
2013-9-22,61,58,54,55,52,48,90,81,66,29.76,29.61,17,7,17,0.13
2013-9-23,61,55,50,55,51,48,96,86,71,30.01,29.76,18,5,18,0.45
2013-9-24,68,54,49,54,50,48,97,87,56,30.00,29.86,8,2,8,0.32
2013-9-25,63,52,43,51,48,42,97,88,65,30.07,29.89,13,2,13,0.01
2013-9-26,68,50,39,54,45,38,98,84,50,30.17,30.06,10,2,10,0.00
2013-9-27,55,51,42,52,48,41,97,91,81,30.16,29.88,11,2,11,0.11
2013-9-28,60,55,51,57,52,48,96,91,85,29.88,29.37,27,7,27,0.66
2013-9-29,57,53,51,51,48,46,94,85,72,29.59,29.20,27,10,27,0.44
2013-9-30,61,53,49,51,47,44,89,80,68,29.94,29.43,24,9,24,0.00
2013-10-1,59,50,47,48,44,41,90,78,64,30.06,29.94,17,5,17,0.02
2013-10-2,54,50,48,49,47,46,95,88,75,30.21,30.10,6,2,6,0.20
2013-10-3,66,53,44,48,46,43,97,77,49,30.48,30.21,10,2,10,0.00
2013-10-4,72,52,36,51,44,36,98,78,36,30.52,30.38,7,2,7,0.00
2013-10-5,76,55,40,52,46,39,97,76,34,30.40,30.16,8,1,8,0.00
2013-10-6,82,58,39,57,44,31,98,67,17,30.16,29.90,17,3,20,0.00
2013-10-7,59,53,50,54,50,48,96,90,69,30.05,29.91,19,4,19,0.51
2013-10-8,62,50,38,50,46,37,97,85,53,30.12,29.99,13,2,13,0.17
2013-10-9,64,46,32,51,40,31,98,83,44,30.18,29.99,10,2,10,0.00
2013-10-10,61,50,42,49,46,41,97,85,62,30.10,29.97,8,1,8,0.00
2013-10-11,58,50,44,50,46,43,97,90,73,30.17,30.10,8,2,8,0.00
2013-10-12,61,50,40,50,46,39,97,87,61,30.25,30.10,11,2,11,0.01
2013-10-13,64,46,38,48,42,37,98,89,55,30.40,30.25,7,1,7,0.00
2013-10-14,65,45,33,48,40,32,98,86,54,30.46,30.39,9,2,9,0.01
2013-10-15,67,47,33,50,42,33,98,84,48,30.43,30.20,10,1,10,0.00
2013-10-16,53,47,41,48,45,40,98,92,81,30.24,30.18,7,1,7,0.00
2013-10-17,65,50,41,50,46,40,97,86,56,30.31,30.23,8,2,8,0.00
2013-10-18,64,46,36,51,42,35,98,89,60,30.29,30.17,8,2,8,0.00
2013-10-19,50,44,39,47,43,38,99,95,87,30.24,30.18,5,2,5,0.01
2013-10-20,49,46,44,46,45,43,98,95,89,30.24,30.19,6,1,6,0.00
2013-10-22,49,48,46,48,47,45,98,97,96,30.08,30.07,4,1,4,0.00
2013-10-23,64,47,39,52,44,38,99,91,64,30.09,30.00,8,2,8,0.01
2013-10-24,59,45,37,49,43,36,99,95,70,30.16,30.05,9,1,9,0.01
2013-10-25,51,48,46,50,46,44,99,94,84,30.35,30.15,7,1,7,0.01
2013-10-26,52,49,46,46,45,45,96,88,77,30.37,30.22,6,1,6,0.00
2013-10-27,62,48,38,49,45,37,97,89,63,30.22,29.93,17,3,17,0.18
2013-10-28,66,45,33,49,36,32,99,77,30,29.99,29.90,14,2,14,0.00
2013-10-29,64,41,28,44,34,28,98,80,38,30.07,29.98,8,2,8,0.00
2013-10-30,58,44,30,47,38,29,97,83,54,30.16,30.06,12,3,12,0.02
2013-10-31,52,49,47,50,48,43,97,94,80,30.29,30.13,11,2,11,0.14
2013-11-1,61,53,48,54,50,47,99,91,72,30.30,29.86,6,1,6,0.01
2013-11-2,52,47,42,50,45,40,97,92,77,29.92,29.50,35,6,35,0.93
2013-11-3,58,41,31,45,38,31,98,91,59,30.15,29.92,8,2,8,0.13
2013-11-4,31,29,28,30,28,27,99,99,98,30.21,30.15,4,0,4,0.00
2013-11-5,97,46,44,53,44,28,98,95,62,30.08,29.70,7,1,7,13.76
2013-11-6,54,46,38,47,43,37,99,91,73,30.14,29.84,8,1,8,0.05
2013-11-7,49,48,46,47,45,44,95,91,86,29.84,29.53,24,8,24,0.60
2013-11-8,57,47,40,48,44,38,98,89,69,29.99,29.80,8,2,8,0.04
2013-11-9,53,44,33,44,41,33,98,90,67,29.98,29.89,3,1,3,0.04
2013-11-10,49,45,43,46,44,43,98,96,90,29.98,29.92,3,1,3,0.06
2013-11-11,63,49,38,52,46,37,98,88,65,29.99,29.82,6,2,6,0.00
2013-11-12,60,52,42,53,49,41,98,89,77,30.18,29.85,17,3,17,0.07
2013-11-13,61,52,48,51,47,44,94,84,61,30.25,30.13,12,2,13,0.00
2013-11-14,50,45,41,47,44,40,98,95,89,30.13,29.88,4,1,4,0.11
2013-11-15,45,44,42,44,42,37,98,95,75,29.89,29.16,25,5,25,0.60
2013-11-16,47,41,38,42,39,37,97,92,79,29.59,29.18,24,3,25,0.40
2013-11-17,51,45,33,45,41,32,99,89,78,29.72,29.59,27,4,27,0.02
2013-11-18,50,49,47,49,46,43,96,92,84,29.72,29.37,17,4,17,0.27
2013-11-19,52,43,34,50,35,21,97,76,48,29.89,29.35,22,5,22,0.26
2013-11-20,49,32,25,33,26,24,96,81,44,30.33,29.89,10,2,10,0.00
2013-11-21,49,30,21,32,24,20,96,82,39,30.49,30.33,8,2,8,0.00
2013-11-22,52,31,21,33,25,20,96,82,37,30.48,30.27,6,2,6,0.01
2013-11-23,52,34,24,36,29,23,97,85,49,30.27,30.02,8,2,8,0.00
2013-11-24,55,35,26,39,31,25,97,87,55,30.08,29.99,6,2,6,0.00
2013-11-25,61,38,28,41,33,27,97,85,45,30.14,30.07,4,1,4,0.01
2013-11-26,65,40,27,42,34,26,98,83,40,30.09,29.92,6,1,6,0.00
2013-11-27,61,42,32,44,38,31,97,86,52,29.92,29.77,5,2,5,0.00
2013-11-28,60,38,29,43,34,28,98,86,38,30.00,29.84,4,1,5,0.01
2013-11-29,49,42,35,44,40,34,96,90,76,30.13,29.99,8,2,8,0.01
2013-11-30,50,48,45,47,44,41,95,86,71,30.14,29.95,18,4,18,0.08
2013-12-1,51,46,39,50,44,36,97,93,87,29.88,29.57,18,4,18,0.63
2013-12-2,46,36,33,39,34,32,97,93,75,29.88,29.63,11,1,11,0.04
2013-12-3,41,31,26,33,29,25,98,93,69,30.14,29.88,4,0,4,0.00
2013-12-4,46,29,21,34,25,20,97,86,45,30.18,30.12,5,1,5,0.01
2013-12-5,35,24,18,29,21,16,95,86,61,30.15,30.02,6,2,6,0.00
2013-12-6,40,22,12,22,13,8,94,73,29,30.07,29.97,9,2,9,0.00
2013-12-7,34,17,7,21,8,4,91,73,32,30.25,30.06,8,1,8,0.00
2013-12-8,40,21,9,26,14,7,92,75,36,30.39,30.24,6,1,6,0.00
2013-12-9,30,24,13,26,21,11,92,85,73,30.41,30.29,4,0,4,0.00
2013-12-10,38,32,29,33,29,26,95,91,80,30.31,30.23,4,0,4,0.00
2013-12-11,46,34,25,38,30,24,97,86,62,30.24,29.98,6,0,6,0.00
2013-12-12,45,36,26,42,33,26,97,90,61,29.98,29.85,16,1,16,0.07
2013-12-13,46,43,41,45,43,40,98,97,94,30.23,29.94,10,1,10,0.07
2013-12-14,48,45,39,44,42,38,98,91,83,30.25,30.14,15,2,15,0.01
2013-12-15,48,46,42,47,45,41,99,95,84,30.27,30.14,11,2,13,0.06
2013-12-16,57,39,29,50,37,29,99,94,63,30.32,30.08,4,0,4,0.01
2013-12-17,40,35,29,39,35,29,99,98,97,30.09,29.93,9,0,9,0.01
2013-12-18,48,37,26,48,35,25,99,91,63,29.97,29.84,14,1,14,0.00
2013-12-19,41,28,21,36,26,20,97,93,71,30.17,29.97,4,0,4,0.00
2013-12-20,36,33,28,35,32,28,99,98,96,30.01,29.53,11,1,11,0.51
2013-12-21,42,37,34,41,37,33,99,98,93,29.99,29.66,4,0,4,0.18
2013-12-22,47,42,38,46,42,37,99,99,98,30.11,29.98,9,1,9,0.64
2013-12-23,52,47,40,48,43,37,98,89,68,30.34,29.94,18,5,18,0.51
2013-12-24,51,39,28,47,37,27,98,92,68,30.43,30.33,8,1,8,0.04
2013-12-25,51,34,26,40,32,26,99,92,59,30.36,30.20,5,0,5,0.00
2013-12-26,54,38,30,41,35,29,98,87,58,30.22,30.02,6,0,6,0.00
2013-12-27,42,36,29,41,36,29,99,99,97,30.18,29.92,5,0,5,0.11
2013-12-28,49,40,35,48,39,34,99,97,88,30.34,30.18,4,0,4,0.01
2013-12-29,41,38,35,40,37,35,99,97,95,30.30,30.13,4,0,4,0.01
2013-12-30,43,38,34,42,38,33,99,98,95,30.14,29.93,6,0,10,0.04
2013-12-31,47,42,39,45,42,38,99,97,93,30.19,30.01,4,0,4,0.05
2014-1-1,46,38,31,44,37,30,99,96,84,30.23,30.14,4,0,4,0.01
2014-1-2,51,46,39,45,42,38,99,87,68,30.05,29.71,16,4,16,0.63